Time,TemperatureF,DewpointF,PressureIn,WindDirection,WindDirectionDegrees,WindSpeedMPH,WindSpeedGustMPH,Humidity,HourlyPrecipIn,Conditions,Clouds,dailyrainin,SoftwareType,DateUTC
2013-02-28 00:01:00,33.0,28.0,-100.00,West,275,4.0,6.0,82,-99.99,,,-99.99,,2013-02-28 06:01:00,
2013-02-28 00:11:00,32.0,28.0,-100.00,West,265,4.0,12.0,83,-99.99,,,-99.99,,2013-02-28 06:11:00,
2013-02-28 00:22:00,32.0,28.0,-100.00,West,265,4.0,12.0,83,-99.99,,,-99.99,,2013-02-28 06:22:00,
2013-02-28 00:42:00,32.0,28.0,-100.00,West,265,6.0,9.0,84,-99.99,,,-99.99,,2013-02-28 06:42:00,
2013-02-28 00:52:00,32.0,28.0,-100.00,WNW,295,6.0,8.0,84,-99.99,,,-99.99,,2013-02-28 06:52:00,
2013-02-28 01:01:00,32.0,28.0,-100.00,WNW,295,6.0,8.0,84,-99.99,,,-99.99,,2013-02-28 07:01:00,
2013-02-28 01:11:00,32.0,27.0,-100.00,WNW,300,4.0,6.0,82,-99.99,,,-99.99,,2013-02-28 07:11:00,
2013-02-28 01:21:00,32.0,27.0,-100.00,West,260,4.0,6.0,80,-99.99,,,-99.99,,2013-02-28 07:21:00,
2013-02-28 01:32:00,32.0,27.0,-100.00,West,260,4.0,6.0,80,-99.99,,,-99.99,,2013-02-28 07:32:00,
2013-02-28 01:41:00,32.0,26.0,-100.00,West,280,4.0,6.0,78,-99.99,,,-99.99,,2013-02-28 07:41:00,
2013-02-28 01:52:00,32.0,26.0,-100.00,West,270,8.0,10.0,78,-99.99,,,-99.99,,2013-02-28 07:52:00,
2013-02-28 02:01:00,32.0,26.0,-100.00,West,270,8.0,10.0,78,-99.99,,,-99.99,,2013-02-28 08:01:00,
2013-02-28 02:11:00,32.0,26.0,-100.00,WNW,285,9.0,12.0,76,-99.99,,,-99.99,,2013-02-28 08:11:00,
2013-02-28 02:22:00,33.0,26.0,-100.00,West,270,3.0,6.0,75,-99.99,,,-99.99,,2013-02-28 08:22:00,
2013-02-28 02:32:00,33.0,26.0,-100.00,West,270,3.0,6.0,75,-99.99,,,-99.99,,2013-02-28 08:32:00,
2013-02-28 02:42:00,33.0,26.0,-100.00,WNW,290,4.0,6.0,75,-99.99,,,-99.99,,2013-02-28 08:42:00,
2013-02-28 02:53:00,33.0,26.0,-100.00,WNW,290,4.0,9.0,75,-99.99,,,-99.99,,2013-02-28 08:53:00,
2013-02-28 03:03:00,33.0,26.0,-100.00,WNW,290,4.0,9.0,75,-99.99,,,-99.99,,2013-02-28 09:03:00,
2013-02-28 03:11:00,32.0,25.0,-100.00,West,265,4.0,9.0,75,-99.99,,,-99.99,,2013-02-28 09:11:00,
2013-02-28 03:22:00,32.0,25.0,-100.00,WSW,250,4.0,8.0,75,-99.99,,,-99.99,,2013-02-28 09:22:00,
2013-02-28 03:32:00,32.0,25.0,-100.00,WSW,250,4.0,8.0,75,-99.99,,,-99.99,,2013-02-28 09:32:00,
2013-02-28 03:42:00,32.0,25.0,-100.00,WSW,250,6.0,10.0,75,-99.99,,,-99.99,,2013-02-28 09:42:00,
2013-02-28 03:52:00,32.0,25.0,-100.00,WSW,255,8.0,12.0,74,-99.99,,,-99.99,,2013-02-28 09:52:00,
2013-02-28 04:02:00,32.0,25.0,-100.00,WSW,255,8.0,12.0,74,-99.99,,,-99.99,,2013-02-28 10:02:00,
2013-02-28 04:11:00,32.0,25.0,-100.00,West,265,9.0,12.0,74,-99.99,,,-99.99,,2013-02-28 10:11:00,
2013-02-28 04:22:00,33.0,25.0,-100.00,West,260,6.0,11.0,74,-99.99,,,-99.99,,2013-02-28 10:22:00,
2013-02-28 04:32:00,33.0,25.0,-100.00,West,260,6.0,11.0,74,-99.99,,,-99.99,,2013-02-28 10:32:00,
2013-02-28 04:42:00,33.0,25.0,-100.00,WSW,250,4.0,8.0,74,-99.99,,,-99.99,,2013-02-28 10:42:00,
2013-02-28 04:52:00,33.0,25.0,-100.00,WNW,285,6.0,10.0,74,-99.99,,,-99.99,,2013-02-28 10:52:00,
2013-02-28 05:01:00,33.0,25.0,-100.00,WNW,285,6.0,10.0,74,-99.99,,,-99.99,,2013-02-28 11:01:00,
2013-02-28 05:11:00,33.0,26.0,-100.00,West,260,8.0,10.0,75,-99.99,,,-99.99,,2013-02-28 11:11:00,
2013-02-28 05:22:00,33.0,26.0,-100.00,NW,305,4.0,6.0,75,-99.99,,,-99.99,,2013-02-28 11:22:00,
2013-02-28 05:32:00,33.0,26.0,-100.00,NW,305,4.0,6.0,75,-99.99,,,-99.99,,2013-02-28 11:32:00,
2013-02-28 05:42:00,33.0,26.0,-100.00,WSW,255,4.0,6.0,76,-99.99,,,-99.99,,2013-02-28 11:42:00,
2013-02-28 05:52:00,33.0,26.0,-100.00,West,270,3.0,6.0,76,-99.99,,,-99.99,,2013-02-28 11:52:00,
2013-02-28 06:02:00,33.0,26.0,-100.00,West,270,3.0,6.0,76,-99.99,,,-99.99,,2013-02-28 12:02:00,
2013-02-28 06:11:00,32.0,26.0,-100.00,WSW,250,4.0,6.0,77,-99.99,,,-99.99,,2013-02-28 12:11:00,
2013-02-28 06:22:00,33.0,26.0,-100.00,WNW,285,4.0,8.0,77,-99.99,,,-99.99,,2013-02-28 12:22:00,
2013-02-28 06:32:00,33.0,26.0,-100.00,WNW,285,4.0,8.0,77,-99.99,,,-99.99,,2013-02-28 12:32:00,
2013-02-28 06:42:00,33.0,26.0,-100.00,WNW,290,4.0,6.0,77,-99.99,,,-99.99,,2013-02-28 12:42:00,
2013-02-28 06:52:00,33.0,27.0,-100.00,WSW,255,3.0,6.0,78,-99.99,,,-99.99,,2013-02-28 12:52:00,
2013-02-28 07:02:00,33.0,27.0,-100.00,WSW,255,3.0,6.0,78,-99.99,,,-99.99,,2013-02-28 13:02:00,
2013-02-28 07:11:00,33.0,27.0,-100.00,West,265,6.0,6.0,78,-99.99,,,-99.99,,2013-02-28 13:11:00,
2013-02-28 07:22:00,33.0,27.0,-100.00,WNW,290,6.0,9.0,78,-99.99,,,-99.99,,2013-02-28 13:22:00,
2013-02-28 07:32:00,33.0,27.0,-100.00,WNW,290,6.0,9.0,78,-99.99,,,-99.99,,2013-02-28 13:32:00,
2013-02-28 07:42:00,33.0,27.0,-100.00,WNW,295,6.0,9.0,79,-99.99,,,-99.99,,2013-02-28 13:42:00,
2013-02-28 07:52:00,33.0,27.0,-100.00,WNW,285,6.0,9.0,79,-99.99,,,-99.99,,2013-02-28 13:52:00,
2013-02-28 08:01:00,33.0,27.0,-100.00,WNW,285,6.0,9.0,79,-99.99,,,-99.99,,2013-02-28 14:01:00,
2013-02-28 08:11:00,33.0,27.0,-100.00,West,280,4.0,6.0,79,-99.99,,,-99.99,,2013-02-28 14:11:00,
2013-02-28 08:22:00,33.0,27.0,-100.00,WSW,255,6.0,10.0,79,-99.99,,,-99.99,,2013-02-28 14:22:00,
2013-02-28 08:32:00,33.0,27.0,-100.00,WSW,255,6.0,10.0,79,-99.99,,,-99.99,,2013-02-28 14:32:00,
2013-02-28 08:42:00,34.0,27.0,-100.00,West,275,6.0,6.0,78,-99.99,,,-99.99,,2013-02-28 14:42:00,
2013-02-28 08:52:00,33.0,27.0,-100.00,West,270,4.0,6.0,78,-99.99,,,-99.99,,2013-02-28 14:52:00,
2013-02-28 09:02:00,33.0,27.0,-100.00,West,270,4.0,6.0,78,-99.99,,,-99.99,,2013-02-28 15:02:00,
2013-02-28 09:11:00,34.0,28.0,-100.00,WNW,295,6.0,8.0,78,-99.99,,,-99.99,,2013-02-28 15:11:00,
2013-02-28 09:21:00,34.0,28.0,-100.00,WSW,255,4.0,6.0,78,-99.99,,,-99.99,,2013-02-28 15:21:00,
2013-02-28 09:32:00,34.0,28.0,-100.00,WNW,290,10.0,12.0,78,-99.99,,,-99.99,,2013-02-28 15:32:00,
2013-02-28 09:42:00,34.0,28.0,-100.00,WNW,290,10.0,12.0,78,-99.99,,,-99.99,,2013-02-28 15:42:00,
2013-02-28 09:52:00,34.0,28.0,-100.00,West,270,8.0,10.0,78,-99.99,,,-99.99,,2013-02-28 15:52:00,
2013-02-28 10:02:00,34.0,28.0,-100.00,West,270,8.0,10.0,78,-99.99,,,-99.99,,2013-02-28 16:02:00,
2013-02-28 10:12:00,34.0,28.0,-100.00,WSW,255,8.0,10.0,77,-99.99,,,-99.99,,2013-02-28 16:12:00,
2013-02-28 10:22:00,34.0,28.0,-100.00,WNW,300,4.0,6.0,76,-99.99,,,-99.99,,2013-02-28 16:22:00,
2013-02-28 10:32:00,34.0,28.0,-100.00,WNW,300,4.0,6.0,76,-99.99,,,-99.99,,2013-02-28 16:32:00,
2013-02-28 10:42:00,34.0,28.0,-100.00,SW,235,6.0,11.0,76,-99.99,,,-99.99,,2013-02-28 16:42:00,
2013-02-28 10:52:00,35.0,28.0,-100.00,SW,230,6.0,10.0,76,-99.99,,,-99.99,,2013-02-28 16:52:00,
2013-02-28 11:02:00,35.0,28.0,-100.00,SW,230,6.0,10.0,76,-99.99,,,-99.99,,2013-02-28 17:02:00,
2013-02-28 11:12:00,35.0,28.0,-100.00,NW,305,8.0,11.0,75,-99.99,,,-99.99,,2013-02-28 17:12:00,
2013-02-28 11:22:00,35.0,28.0,-100.00,West,280,10.0,14.0,74,-99.99,,,-99.99,,2013-02-28 17:22:00,
2013-02-28 11:32:00,35.0,28.0,-100.00,West,280,10.0,14.0,74,-99.99,,,-99.99,,2013-02-28 17:32:00,
2013-02-28 11:42:00,36.0,28.0,-100.00,WNW,295,10.0,14.0,73,-99.99,,,-99.99,,2013-02-28 17:42:00,
2013-02-28 11:53:00,36.0,28.0,-100.00,WNW,295,9.0,11.0,72,-99.99,,,-99.99,,2013-02-28 17:53:00,
2013-02-28 12:02:00,36.0,28.0,-100.00,WNW,295,9.0,11.0,72,-99.99,,,-99.99,,2013-02-28 18:02:00,
2013-02-28 12:11:00,36.0,28.0,-100.00,WNW,285,10.0,14.0,72,-99.99,,,-99.99,,2013-02-28 18:11:00,
2013-02-28 12:22:00,36.0,28.0,-100.00,WNW,295,10.0,12.0,72,-99.99,,,-99.99,,2013-02-28 18:22:00,
2013-02-28 12:32:00,36.0,28.0,-100.00,WNW,295,10.0,12.0,72,-99.99,,,-99.99,,2013-02-28 18:32:00,
2013-02-28 12:42:00,36.0,28.0,-100.00,WNW,295,10.0,12.0,72,-99.99,,,-99.99,,2013-02-28 18:42:00,
2013-02-28 12:52:00,37.0,28.0,-100.00,West,280,10.0,11.0,72,-99.99,,,-99.99,,2013-02-28 18:52:00,
2013-02-28 13:02:00,37.0,28.0,-100.00,West,280,10.0,11.0,72,-99.99,,,-99.99,,2013-02-28 19:02:00,
2013-02-28 13:11:00,36.0,28.0,-100.00,NW,305,6.0,10.0,71,-99.99,,,-99.99,,2013-02-28 19:11:00,
2013-02-28 13:22:00,37.0,28.0,-100.00,WNW,300,10.0,14.0,70,-99.99,,,-99.99,,2013-02-28 19:22:00,
2013-02-28 13:32:00,37.0,28.0,-100.00,WNW,300,10.0,14.0,70,-99.99,,,-99.99,,2013-02-28 19:32:00,
2013-02-28 13:42:00,37.0,28.0,-100.00,WNW,295,16.0,21.0,69,-99.99,,,-99.99,,2013-02-28 19:42:00,
2013-02-28 13:52:00,37.0,28.0,-100.00,WNW,300,6.0,12.0,69,-99.99,,,-99.99,,2013-02-28 19:52:00,
2013-02-28 14:01:00,37.0,28.0,-100.00,WNW,300,6.0,12.0,69,-99.99,,,-99.99,,2013-02-28 20:01:00,
2013-02-28 14:12:00,37.0,28.0,-100.00,WNW,295,9.0,12.0,69,-99.99,,,-99.99,,2013-02-28 20:12:00,
2013-02-28 14:22:00,37.0,28.0,-100.00,WNW,290,9.0,11.0,69,-99.99,,,-99.99,,2013-02-28 20:22:00,
2013-02-28 14:32:00,37.0,28.0,-100.00,WNW,290,9.0,11.0,69,-99.99,,,-99.99,,2013-02-28 20:32:00,
2013-02-28 14:42:00,38.0,28.0,-100.00,West,275,6.0,9.0,69,-99.99,,,-99.99,,2013-02-28 20:42:00,
2013-02-28 14:52:00,37.0,28.0,-100.00,WNW,290,4.0,6.0,68,-99.99,,,-99.99,,2013-02-28 20:52:00,
2013-02-28 15:02:00,37.0,28.0,-100.00,WNW,290,4.0,6.0,68,-99.99,,,-99.99,,2013-02-28 21:02:00,
2013-02-28 15:11:00,37.0,27.0,-100.00,WNW,290,12.0,17.0,68,-99.99,,,-99.99,,2013-02-28 21:11:00,
2013-02-28 15:22:00,37.0,28.0,-100.00,WNW,290,8.0,11.0,68,-99.99,,,-99.99,,2013-02-28 21:22:00,
2013-02-28 15:32:00,37.0,28.0,-100.00,WNW,290,8.0,11.0,68,-99.99,,,-99.99,,2013-02-28 21:32:00,
2013-02-28 15:42:00,37.0,28.0,-100.00,WNW,300,14.0,16.0,69,-99.99,,,-99.99,,2013-02-28 21:42:00,
2013-02-28 15:52:00,37.0,28.0,-100.00,North,0,4.0,6.0,69,-99.99,,,-99.99,,2013-02-28 21:52:00,
2013-02-28 16:01:00,37.0,28.0,-100.00,North,0,4.0,6.0,69,-99.99,,,-99.99,,2013-02-28 22:01:00,
2013-02-28 16:11:00,37.0,27.0,-100.00,WNW,290,12.0,17.0,69,-99.99,,,-99.99,,2013-02-28 22:11:00,
2013-02-28 16:22:00,37.0,28.0,-100.00,NW,315,6.0,12.0,70,-99.99,,,-99.99,,2013-02-28 22:22:00,
2013-02-28 16:32:00,37.0,28.0,-100.00,NW,315,6.0,12.0,70,-99.99,,,-99.99,,2013-02-28 22:32:00,
2013-02-28 16:42:00,36.0,28.0,-100.00,WNW,295,3.0,6.0,70,-99.99,,,-99.99,,2013-02-28 22:42:00,
2013-02-28 16:52:00,36.0,28.0,-100.00,WNW,295,4.0,8.0,71,-99.99,,,-99.99,,2013-02-28 22:52:00,
2013-02-28 17:01:00,36.0,28.0,-100.00,WNW,295,4.0,8.0,71,-99.99,,,-99.99,,2013-02-28 23:01:00,
2013-02-28 17:11:00,36.0,28.0,-100.00,NW,310,6.0,9.0,72,-99.99,,,-99.99,,2013-02-28 23:11:00,
2013-02-28 17:22:00,36.0,28.0,-100.00,West,265,2.0,4.0,73,-99.99,,,-99.99,,2013-02-28 23:22:00,
2013-02-28 17:32:00,36.0,28.0,-100.00,West,265,2.0,4.0,73,-99.99,,,-99.99,,2013-02-28 23:32:00,
2013-02-28 17:42:00,36.0,28.0,-100.00,West,280,6.0,8.0,73,-99.99,,,-99.99,,2013-02-28 23:42:00,
2013-02-28 17:53:00,36.0,28.0,-100.00,WNW,285,8.0,12.0,74,-99.99,,,-99.99,,2013-02-28 23:53:00,
2013-02-28 18:01:00,36.0,28.0,-100.00,WNW,285,8.0,12.0,74,-99.99,,,-99.99,,2013-03-01 00:01:00,
2013-02-28 18:11:00,35.0,28.0,-100.00,WNW,300,6.0,10.0,75,-99.99,,,-99.99,,2013-03-01 00:11:00,
2013-02-28 18:22:00,35.0,29.0,-100.00,WNW,295,4.0,6.0,76,-99.99,,,-99.99,,2013-03-01 00:22:00,
2013-02-28 18:32:00,35.0,29.0,-100.00,WNW,295,4.0,6.0,76,-99.99,,,-99.99,,2013-03-01 00:32:00,
2013-02-28 18:42:00,35.0,29.0,-100.00,WNW,295,4.0,6.0,76,-99.99,,,-99.99,,2013-03-01 00:42:00,
2013-02-28 18:52:00,35.0,28.0,-100.00,WNW,290,9.0,9.0,76,-99.99,,,-99.99,,2013-03-01 00:52:00,
2013-02-28 19:01:00,35.0,28.0,-100.00,WNW,290,9.0,9.0,76,-99.99,,,-99.99,,2013-03-01 01:01:00,
2013-02-28 19:11:00,35.0,28.0,-100.00,NW,310,3.0,6.0,76,-99.99,,,-99.99,,2013-03-01 01:11:00,
2013-02-28 19:21:00,35.0,28.0,-100.00,NW,310,9.0,12.0,77,-99.99,,,-99.99,,2013-03-01 01:21:00,
2013-02-28 19:32:00,35.0,28.0,-100.00,WNW,290,9.0,11.0,77,-99.99,,,-99.99,,2013-03-01 01:32:00,
2013-02-28 19:42:00,35.0,28.0,-100.00,WNW,290,9.0,11.0,77,-99.99,,,-99.99,,2013-03-01 01:42:00,
2013-02-28 19:52:00,34.0,29.0,-100.00,WNW,295,6.0,9.0,79,-99.99,,,-99.99,,2013-03-01 01:52:00,
2013-02-28 20:01:00,34.0,29.0,-100.00,WNW,295,6.0,9.0,79,-99.99,,,-99.99,,2013-03-01 02:01:00,
2013-02-28 20:11:00,34.0,29.0,-100.00,NW,305,6.0,9.0,81,-99.99,,,-99.99,,2013-03-01 02:11:00,
2013-02-28 20:21:00,34.0,29.0,-100.00,NW,305,4.0,6.0,82,-99.99,,,-99.99,,2013-03-01 02:21:00,
2013-02-28 20:32:00,34.0,29.0,-100.00,NW,305,4.0,6.0,82,-99.99,,,-99.99,,2013-03-01 02:32:00,
2013-02-28 20:42:00,34.0,29.0,-100.00,WNW,285,9.0,12.0,83,-99.99,,,-99.99,,2013-03-01 02:42:00,
2013-02-28 20:52:00,34.0,30.0,-100.00,WNW,295,6.0,9.0,84,-99.99,,,-99.99,,2013-03-01 02:52:00,
2013-02-28 21:02:00,34.0,30.0,-100.00,WNW,295,6.0,9.0,84,-99.99,,,-99.99,,2013-03-01 03:02:00,
2013-02-28 21:11:00,34.0,30.0,-100.00,WNW,295,8.0,9.0,86,-99.99,,,-99.99,,2013-03-01 03:11:00,
2013-02-28 21:21:00,34.0,30.0,-100.00,WNW,295,8.0,9.0,86,-99.99,,,-99.99,,2013-03-01 03:21:00,
2013-02-28 21:32:00,34.0,30.0,-100.00,WNW,295,8.0,9.0,86,-99.99,,,-99.99,,2013-03-01 03:32:00,
2013-02-28 21:42:00,33.0,30.0,-100.00,WNW,295,9.0,11.0,86,-99.99,,,-99.99,,2013-03-01 03:42:00,
2013-02-28 21:52:00,33.0,30.0,-100.00,WNW,295,4.0,4.0,88,-99.99,,,-99.99,,2013-03-01 03:52:00,
2013-02-28 22:01:00,33.0,30.0,-100.00,WNW,295,4.0,4.0,88,-99.99,,,-99.99,,2013-03-01 04:01:00,
2013-02-28 22:11:00,33.0,30.0,-100.00,West,275,1.0,3.0,88,-99.99,,,-99.99,,2013-03-01 04:11:00,
2013-02-28 22:21:00,33.0,30.0,-100.00,WNW,285,3.0,4.0,89,-99.99,,,-99.99,,2013-03-01 04:21:00,
2013-02-28 22:32:00,33.0,30.0,-100.00,WNW,285,3.0,4.0,89,-99.99,,,-99.99,,2013-03-01 04:32:00,
2013-02-28 22:42:00,33.0,30.0,-100.00,WNW,290,3.0,6.0,90,-99.99,,,-99.99,,2013-03-01 04:42:00,
2013-02-28 22:52:00,33.0,30.0,-100.00,WNW,290,6.0,6.0,90,-99.99,,,-99.99,,2013-03-01 04:52:00,
2013-02-28 23:02:00,33.0,30.0,-100.00,WNW,290,6.0,6.0,90,-99.99,,,-99.99,,2013-03-01 05:02:00,
2013-02-28 23:11:00,33.0,30.0,-100.00,WNW,295,6.0,10.0,90,-99.99,,,-99.99,,2013-03-01 05:11:00,
2013-02-28 23:22:00,33.0,30.0,-100.00,West,260,6.0,8.0,90,-99.99,,,-99.99,,2013-03-01 05:22:00,
2013-02-28 23:31:00,32.0,30.0,-100.00,WNW,285,6.0,8.0,91,-99.99,,,-99.99,,2013-03-01 05:31:00,
2013-02-28 23:32:00,33.0,30.0,-100.00,WNW,290,3.0,6.0,90,-99.99,,,-99.99,,2013-03-01 05:32:00,
2013-02-28 23:42:00,33.0,30.0,-100.00,WNW,290,3.0,6.0,90,-99.99,,,-99.99,,2013-03-01 05:42:00,
2013-02-28 23:53:00,33.0,30.0,-100.00,WNW,290,4.0,6.0,91,-99.99,,,-99.99,,2013-03-01 05:53:00,